STARLINK-31029 (58712 NORAD) Tracking and Keplerian Element Data

This shows tracking and keplerian element data for the satellite.

Feedback or suggestion? Click here.




ElementValue
Catalog58712
NameSTARLINK-31029
Epoch Orbit265
Epoch Day13.25002315
Epoch Year2024
RAAN198.7874
Inclination53.1623
Eccentricity9.04E-05
Argument of Perigee82.4221
Mean Anonmoly152.9844
Mean Motion15.51455655
Decay Rate-0.01745419
L11 58712U 24002H 24013.25002315 -.01745419 00000+0 -32639-1 0 9995
L22 58712 53.1623 198.7874 0000904 82.4221 152.9844 15.51455655 2659



Live tracking and technical data element details for STARLINK-31029 (NORAD 58712). STARLINK-31029 can be tracked NOW for your location showing map with azimuth and elevation plus other details from your city location.







IsCatalogInMostPopularTable: catalog: 58712, numindb: 24
Update: records affected: 1



GetName: 58712 STARLINK-31029

Hit Count: updated at: Wed, 17 Apr 2024 03:13:36 GMT